Wind_Speed
35 36 36 36 36 35 35 35 34 33 33 33 32 32 31 31 31 30 30 29 29 29 29 29 29 30 30 31 31 31 32 32 32 32 31 31 31 32 32 33 33 32 32
35 36 36 36 36 36 36 36 36 36 35 34 34 33 33 33 32 31 32 31 31 31 31 31 31 31 32 32 33 33 33 32 32 32 33 33 32 33 33 34 34 34 34
35 35 35 36 36 36 36 36 36 36 36 36 35 35 35 35 34 34 34 34 33 33 33 33 34 33 33 34 34 34 34 34 34 34 34 34 34 34 34 34 34 35 35
35 35 35 35 36 37 37 37 37 37 37 36 36 36 36 36 36 36 36 36 36 35 36 36 36 36 36 36 36 35 35 35 35 35 35 35 35 35 35 35 35 35 35
36 36 36 36 36 36 38 38 38 38 38 38 37 37 37 37 37 37 37 37 38 38 38 38 38 38 38 37 37 36 36 36 36 36 36 36 36 36 36 36 36 36 36
37 37 38 38 38 37 38 39 39 39 39 39 38 38 38 38 38 38 39 39 39 39 39 39 38 39 39 38 38 37 37 37 38 38 38 38 37 38 38 37 37 37 37
38 38 38 39 39 39 38 38 39 39 39 39 40 39 39 40 40 40 40 40 41 41 41 41 39 39 39 39 39 39 39 39 39 40 40 39 38 39 39 39 38 38 38
38 38 38 38 38 38 38 38 39 39 39 40 40 40 40 40 41 41 41 42 42 42 42 41 40 40 40 40 40 39 40 40 40 40 39 39 39 39 40 40 39 39 40
40 39 39 38 38 38 38 38 38 38 39 39 40 40 40 40 41 41 41 42 42 43 43 42 41 41 41 40 41 41 41 41 41 40 39 39 40 41 41 40 40 40 41
40 39 39 39 38 38 38 38 38 39 39 40 40 41 41 41 41 41 41 41 41 42 42 42 41 41 41 41 41 41 42 41 41 40 40 40 41 42 42 41 41 41 41
40 39 38 37 37 38 38 38 38 39 40 40 40 40 40 41 41 41 40 40 41 41 41 41 40 40 41 41 41 41 41 41 42 42 41 42 43 43 43 42 41 41 41
38 39 39 38 38 38 38 38 39 39 40 40 40 40 41 41 41 40 40 40 40 39 40 40 39 40 40 40 40 41 41 41 41 42 42 43 43 43 42 42 42 42 42
37 37 37 37 38 38 39 38 39 40 39 39 40 40 41 41 41 41 41 40 39 39 39 38 38 39 40 40 41 41 41 41 42 42 42 42 42 42 42 42 42 43 42
37 37 37 37 37 38 39 39 39 39 39 39 40 41 42 41 41 41 41 40 40 40 39 38 38 38 39 40 41 41 41 41 41 42 42 42 42 43 43 43 42 43 43
36 36 37 37 38 38 38 38 39 39 39 40 40 41 41 41 41 41 41 41 41 41 39 38 38 38 39 39 39 39 40 40 41 42 42 42 43 43 42 42 42 43 43
36 36 37 37 38 38 38 38 39 39 40 40 41 41 41 40 40 40 40 40 41 41 40 39 39 39 39 39 39 39 40 41 42 42 42 42 42 41 41 41 42 43 43
35 36 37 37 37 38 38 38 38 38 39 40 40 40 40 40 40 40 41 41 41 41 40 39 39 40 39 39 39 39 40 40 40 40 40 41 41 41 41 42 42 43 44
35 35 36 36 37 37 38 38 39 39 40 40 39 39 39 39 40 40 40 40 40 39 39 39 39 40 40 40 40 40 40 39 39 39 40 40 40 41 42 42 43 44 44
34 34 34 35 36 36 37 38 38 39 39 39 39 39 38 38 38 38 39 39 39 39 39 39 39 39 39 39 39 40 40 39 39 39 40 41 41 42 43 44 44 44 45
34 34 34 34 34 34 35 37 37 38 38 38 38 38 39 39 39 39 39 39 38 38 38 38 38 39 39 39 39 39 39 38 39 40 41 41 41 42 43 44 45 45 45
34 34 34 33 34 34 34 36 37 37 37 38 38 38 38 39 39 38 38 38 38 37 37 38 37 38 38 38 38 38 38 39 40 40 41 41 42 43 44 44 44 43 43
33 33 33 33 33 33 33 34 34 35 36 37 37 37 37 38 37 37 37 37 38 37 37 37 37 37 37 37 38 38 38 39 40 41 42 42 43 43 44 43 43 43 43
33 33 33 33 33 33 33 33 33 34 35 36 36 36 36 36 37 37 37 37 37 37 37 37 37 36 36 37 38 38 38 40 41 42 42 42 42 42 42 42 42 42 42
33 34 34 34 34 34 33 33 33 33 34 34 35 35 36 36 37 37 37 37 38 38 37 37 36 36 37 37 38 38 39 40 41 41 41 40 40 41 41 41 41 41 41
34 34 34 34 34 33 33 33 33 33 33 34 34 35 36 36 36 37 37 37 37 37 37 37 37 37 37 38 39 39 40 40 40 40 40 40 40 40 40 40 40 40 39
34 34 34 34 33 33 34 34 34 34 34 34 35 35 36 36 36 37 37 37 36 36 36 37 37 37 37 37 38 39 40 40 40 39 39 39 39 39 39 38 39 39 39
Wind_Direction
260 260 259 260 260 260 260 260 261 262 263 265 267 268 269 271 274 275 276 277 279 281 282 283 284 284 284 285 288 290 291 291 291 292 293 293 292 292 293 293 294 293 292
260 261 260 260 259 260 260 260 260 261 262 264 265 267 268 270 272 274 275 277 279 280 282 282 283 285 285 285 286 288 289 291 292 292 292 292 292 293 293 293 293 292 292
259 260 261 260 259 260 260 261 261 261 263 263 264 266 268 270 271 273 275 276 278 280 281 282 283 284 284 285 287 287 287 288 290 291 291 291 292 292 292 293 292 292 292
259 260 262 262 261 260 260 261 261 262 263 264 265 266 268 269 271 273 275 277 278 279 281 283 283 283 284 284 286 287 288 288 289 289 290 290 291 292 292 292 292 292 292
258 259 261 262 262 262 261 261 261 262 263 264 265 266 268 269 271 273 275 277 278 280 281 283 283 283 283 284 284 285 286 287 289 290 290 289 290 290 292 292 292 293 292
258 259 261 262 263 263 263 262 261 262 263 263 264 265 267 268 271 273 275 276 276 279 280 281 282 282 283 283 284 284 285 286 288 288 289 289 289 289 289 291 292 291 291
260 260 262 262 263 263 262 262 262 262 262 262 263 264 266 268 270 272 275 276 276 277 278 280 280 281 281 282 284 284 284 285 287 288 288 287 287 289 289 290 290 290 290
261 262 262 263 263 263 262 261 262 262 262 262 263 264 266 268 270 272 273 277 278 277 277 277 278 280 280 281 283 284 285 285 288 289 288 287 287 289 290 290 289 289 289
262 263 264 264 264 264 262 260 261 261 262 262 262 265 267 268 271 272 275 277 278 277 277 277 278 279 279 281 282 283 285 286 287 288 288 288 288 289 290 290 289 289 289
262 263 263 263 264 265 264 262 261 262 262 262 263 265 267 269 272 273 275 277 278 278 277 277 277 277 278 280 282 283 284 285 286 287 287 287 288 289 289 289 290 291 291
263 263 264 263 264 264 264 264 263 263 263 263 263 265 267 270 271 274 275 276 278 278 277 276 277 277 278 280 281 282 284 285 285 286 287 287 287 288 289 289 289 290 290
265 265 265 264 264 264 265 264 264 264 265 265 265 266 268 270 272 274 275 275 277 278 278 277 278 278 277 279 281 281 283 284 285 287 287 288 288 288 288 287 288 289 289
265 264 264 265 266 266 265 265 265 266 266 267 267 267 269 271 273 274 275 275 275 277 278 279 279 279 278 279 281 282 283 285 286 288 288 287 287 287 287 287 288 288 288
264 264 263 264 265 266 266 266 267 267 266 266 267 268 269 271 272 273 274 275 275 276 278 279 280 279 280 280 282 283 284 285 286 287 287 287 287 288 286 287 287 288 288
265 264 264 264 264 265 266 266 267 267 266 266 267 268 270 270 271 273 274 275 275 275 276 277 278 280 280 281 283 284 285 286 287 288 288 287 287 288 287 288 289 289 290
265 264 263 264 265 264 265 266 267 267 267 267 267 268 268 269 269 271 273 275 275 275 276 277 278 280 281 282 282 284 286 287 288 288 287 288 289 288 289 289 289 290 290
265 265 265 265 266 265 265 265 267 267 267 267 268 268 269 270 270 271 272 274 275 275 275 277 279 280 281 283 284 285 287 287 288 289 289 289 289 289 290 290 291 291 291
266 267 266 266 267 266 266 266 266 267 267 267 267 268 269 269 270 271 272 273 274 274 275 276 278 280 281 281 283 285 287 287 288 289 289 289 290 290 291 292 293 294 293
267 267 268 267 268 267 267 267 267 266 266 266 266 267 269 269 270 271 272 273 274 275 276 277 278 279 280 281 283 285 285 286 287 289 289 290 291 292 292 292 295 296 296
268 269 269 268 268 268 268 267 267 267 266 266 266 266 267 268 269 270 271 273 274 275 276 278 279 279 280 281 283 283 284 286 288 289 290 291 293 294 294 294 295 296 297
269 269 269 269 269 269 269 269 268 268 267 266 265 265 266 268 270 271 271 272 273 275 277 278 279 280 280 281 282 282 283 285 287 289 290 292 293 294 295 295 295 296 297
269 270 270 270 271 271 271 271 271 269 268 268 268 267 267 267 269 270 270 272 274 276 278 279 280 281 282 283 283 284 284 286 288 289 290 292 293 294 295 296 296 296 298
269 269 269 269 271 272 273 273 272 271 270 270 269 268 268 268 269 271 271 273 275 277 278 279 280 282 283 283 284 285 286 288 290 291 291 292 293 294 295 296 297 297 298
269 269 269 269 269 270 271 272 272 272 272 270 269 269 269 269 271 272 273 274 276 277 278 279 280 281 282 283 284 286 287 289 291 292 292 292 292 294 296 296 296 297 297
269 269 269 269 269 270 271 272 272 272 272 271 270 270 270 270 270 272 273 274 275 276 277 279 280 281 282 284 285 286 288 290 291 292 292 292 292 294 295 296 296 297 298
269 269 269 269 269 269 271 272 272 271 271 271 271 271 270 270 271 273 274 274 275 276 278 279 281 281 282 284 286 288 290 291 292 292 292 293 293 294 294 295 296 297 298
Height
5812 5813 5814 5815 5816 5818 5819 5821 5822 5823 5824 5825 5826 5827 5827 5828 5828 5829 5829 5828 5828 5828 5828 5827 5827 5826 5825 5824 5823 5822 5821 5820 5818 5817 5815 5814 5812 5810 5809 5807 5805 5803 5801
5804 5805 5806 5807 5808 5810 5811 5813 5814 5816 5817 5818 5819 5820 5820 5821 5821 5822 5822 5822 5822 5822 5821 5821 5820 5819 5818 5818 5817 5816 5814 5813 5812 5810 5809 5807 5805 5804 5802 5800 5798 5796 5794
5796 5797 5798 5799 5800 5802 5803 5805 5806 5808 5809 5810 5811 5812 5813 5814 5814 5815 5815 5815 5815 5815 5814 5814 5813 5812 5811 5810 5809 5808 5807 5806 5805 5803 5802 5800 5798 5797 5795 5793 5791 5789 5787
5788 5789 5790 5791 5792 5794 5795 5797 5798 5800 5801 5802 5803 5804 5805 5806 5807 5807 5807 5808 5807 5807 5807 5807 5806 5805 5804 5803 5802 5801 5800 5799 5797 5796 5794 5793 5791 5789 5787 5785 5783 5781 5779
5780 5781 5782 5784 5784 5786 5787 5789 5790 5791 5793 5794 5795 5796 5797 5798 5799 5799 5800 5800 5799 5799 5799 5799 5798 5797 5796 5795 5794 5793 5792 5791 5790 5788 5786 5785 5783 5781 5779 5777 5775 5773 5770
5772 5773 5775 5776 5777 5778 5779 5780 5781 5782 5784 5785 5787 5788 5789 5790 5791 5791 5791 5791 5791 5791 5791 5790 5790 5789 5788 5787 5786 5785 5784 5783 5781 5780 5778 5776 5775 5773 5771 5769 5766 5764 5762
5764 5765 5766 5767 5768 5769 5770 5771 5772 5773 5775 5776 5778 5780 5781 5781 5782 5782 5782 5782 5782 5782 5782 5781 5781 5780 5779 5779 5778 5777 5776 5774 5773 5771 5769 5768 5766 5764 5762 5760 5758 5755 5753
5755 5756 5758 5759 5760 5760 5761 5762 5763 5764 5766 5767 5769 5770 5772 5774 5773 5773 5773 5773 5773 5772 5772 5772 5772 5771 5770 5770 5769 5768 5766 5765 5764 5762 5760 5759 5757 5755 5753 5751 5748 5746 5743
5746 5747 5749 5750 5751 5752 5752 5753 5754 5755 5757 5758 5759 5761 5763 5764 5764 5765 5764 5764 5763 5763 5763 5762 5762 5761 5761 5761 5760 5759 5757 5756 5754 5752 5751 5749 5747 5745 5743 5741 5739 5736 5734
5737 5738 5739 5741 5742 5743 5744 5745 5745 5746 5748 5749 5750 5751 5753 5754 5755 5756 5756 5755 5754 5753 5753 5753 5752 5752 5751 5751 5750 5749 5747 5746 5744 5743 5741 5739 5737 5735 5733 5731 5729 5727 5724
5728 5729 5730 5732 5733 5734 5734 5735 5737 5737 5738 5740 5741 5742 5743 5744 5744 5745 5746 5746 5744 5744 5743 5743 5742 5742 5741 5740 5740 5739 5737 5736 5735 5733 5731 5729 5727 5725 5723 5721 5719 5716 5714
5720 5721 5721 5723 5724 5725 5725 5726 5727 5728 5729 5730 5731 5732 5733 5734 5735 5735 5735 5735 5735 5734 5733 5733 5732 5732 5731 5730 5729 5729 5727 5726 5724 5722 5721 5719 5717 5714 5712 5710 5708 5706 5703
5711 5712 5713 5714 5715 5715 5716 5717 5717 5718 5719 5721 5722 5723 5724 5725 5725 5725 5725 5725 5725 5725 5724 5723 5723 5722 5721 5720 5719 5718 5717 5716 5714 5712 5710 5708 5706 5704 5702 5700 5697 5695 5692
5702 5703 5704 5705 5706 5706 5707 5707 5708 5709 5710 5712 5713 5714 5714 5715 5715 5715 5715 5715 5716 5716 5715 5715 5713 5712 5711 5710 5709 5708 5707 5705 5703 5702 5700 5697 5695 5693 5691 5688 5686 5683 5680
5693 5693 5694 5696 5696 5697 5698 5698 5699 5700 5701 5702 5703 5704 5704 5705 5705 5705 5705 5705 5706 5706 5706 5705 5703 5702 5701 5700 5699 5698 5696 5695 5693 5691 5689 5687 5685 5682 5679 5677 5674 5671 5668
5684 5684 5685 5686 5687 5688 5689 5689 5690 5690 5691 5692 5693 5694 5694 5695 5695 5695 5695 5695 5695 5695 5696 5695 5694 5693 5691 5690 5689 5687 5686 5684 5682 5680 5678 5676 5673 5671 5668 5665 5662 5660 5656
5675 5675 5676 5677 5678 5678 5679 5680 5680 5681 5681 5682 5683 5684 5684 5685 5685 5685 5686 5685 5685 5685 5686 5686 5684 5683 5682 5681 5679 5677 5676 5674 5672 5669 5667 5665 5662 5660 5657 5654 5651 5647 5644
5666 5666 5667 5668 5668 5669 5669 5670 5670 5671 5672 5673 5673 5674 5675 5675 5675 5675 5675 5676 5676 5675 5676 5676 5675 5673 5672 5671 5669 5668 5666 5664 5662 5659 5657 5654 5651 5649 5646 5642 5639 5635 5631
5657 5657 5658 5658 5659 5659 5659 5660 5660 5661 5662 5663 5663 5664 5665 5665 5666 5666 5666 5666 5666 5666 5665 5665 5664 5663 5662 5661 5659 5658 5656 5654 5651 5649 5646 5644 5641 5637 5634 5631 5627 5623 5618
5648 5648 5649 5649 5649 5649 5650 5650 5650 5651 5651 5652 5653 5654 5655 5655 5656 5656 5656 5656 5656 5656 5655 5655 5654 5653 5652 5651 5649 5648 5646 5644 5641 5638 5636 5633 5629 5626 5622 5619 5615 5610 5606
5639 5640 5640 5640 5640 5640 5640 5640 5640 5640 5641 5642 5643 5644 5644 5645 5645 5646 5646 5646 5646 5646 5645 5645 5644 5643 5642 5640 5639 5637 5636 5634 5631 5628 5625 5622 5618 5615 5610 5606 5602 5598 5593
5630 5631 5631 5631 5631 5631 5630 5630 5630 5630 5631 5632 5632 5633 5634 5635 5635 5636 5636 5636 5636 5636 5635 5634 5634 5633 5632 5630 5629 5627 5625 5623 5621 5618 5614 5611 5607 5603 5599 5594 5590 5585 5581
5621 5622 5622 5622 5622 5621 5621 5621 5621 5621 5621 5622 5623 5623 5624 5625 5625 5626 5626 5626 5626 5625 5625 5625 5624 5623 5621 5620 5618 5616 5614 5612 5610 5606 5603 5600 5596 5591 5587 5582 5577 5573 5569
5612 5612 5612 5612 5612 5612 5612 5612 5611 5612 5612 5612 5613 5614 5614 5614 5615 5616 5616 5616 5616 5615 5614 5614 5613 5612 5610 5609 5607 5605 5603 5601 5598 5594 5590 5588 5584 5580 5576 5571 5566 5561 5557
5602 5602 5602 5602 5602 5602 5602 5602 5602 5603 5603 5603 5603 5604 5604 5605 5605 5605 5606 5606 5605 5605 5604 5603 5602 5601 5599 5598 5596 5594 5592 5589 5587 5584 5579 5576 5573 5569 5565 5560 5555 5550 5546
5591 5592 5592 5592 5592 5593 5593 5592 5593 5593 5593 5593 5593 5594 5594 5594 5595 5595 5595 5595 5595 5594 5593 5592 5591 5590 5589 5587 5585 5583 5580 5577 5574 5572 5568 5564 5561 5557 5555 5551 5545 5540 5535